Voltar ao catálogo

SL-16 DEB

AtivoLEO
NORAD 22352·DEBRIS·🇷🇺 Russia

Lançado Dec 25, 1992 de Baikonur Cosmodrome

Loading…

Próximas Passagens (próximas 24 horas)

TLE

AtualizadoSource: Space-Track

Época: Sep 14, 2026, 10:41 UTC

1 22352U 92093AR  26257.44571612 -.00000056  00000-0 -56806-5 0  9992
2 22352  70.8912  51.8363 0076171   1.3723  18.2634 14.00740556721340

Acompanhe SL-16 DEB em tempo real com AllMySat

Download on the App Store